Location: Burleson Alternative School
(32.5290°N, 97.3406°W)
Time: 18:51:16
(UTC+00:00)

Vanguard 1 - Visible Passes

Search period start: 16 December 2025 00:00
Search period end: 26 December 2025 00:00
Orbit: 651 x 3820 km, 34.2° (Epoch: 15 December)

Date Brightness Start Highest point End Pass type
(mag) Time Alt. Az. Time Alt. Az. Time Alt. Az.
16 Dec 14.6 00:05:44 10° WSW 00:15:44 18° SW 00:28:13 10° S visible
16 Dec 12.2 12:44:43 10° SSE 12:46:23 12° SE 12:48:02 10° ESE visible
17 Dec 14.8 00:29:43 10° WSW 00:35:41 12° SW 00:42:23 10° SSW visible
20 Dec 12.1 11:41:06 10° S 11:43:34 13° SSE 11:45:50 10° ESE visible
21 Dec 11.5 11:58:58 10° SSW 12:02:52 21° SSE 12:06:17 10° ESE visible
22 Dec 10.9 12:17:34 10° SW 12:22:08 32° SSE 12:26:06 10° E visible
23 Dec 12.4 10:19:43 10° SSE 10:21:18 11° SSE 10:22:56 10° SE visible
23 Dec 10.2 12:36:34 10° SW 12:41:25 47° SSE 12:45:40 10° E visible
24 Dec 11.9 10:39:02 16° S 10:40:46 18° SSE 10:44:10 10° ESE visible
24 Dec 9.6 12:55:48 10° WSW 13:00:43 66° SSE 13:05:07 10° E visible
25 Dec 11.3 10:58:09 22° S 11:00:11 26° SSE 11:04:13 10° E visible
